Weather History for KANE - October, 2013

Change the Weather History Date:

Wednesday, October 9, 2013

  Actual Average Record
Temperature  
Mean Temperature 68 °F -  
Max Temperature 75 °F 59 °F 82 °F (2011)
Min Temperature 60 °F 39 °F 26 °F (2000)
Cooling Degree Days 2    
Growing Degree Days 18 (Base 50)    
Moisture  
Dew Point 49 °F    
Average Humidity 55    
Maximum Humidity 68    
Minimum Humidity 41    
Precipitation  
Precipitation 0.00 in - - ()
Sea Level Pressure  
Sea Level Pressure 29.99 in    
Wind  
Wind Speed 14 mph (South)    
Max Wind Speed 18 mph    
Max Gust Speed 30 mph    
Visibility 10 miles    
Events      
Averages and records for this station are not official NWS values.
T = Trace of Precipitation, MM = Missing Value Source: NWS Daily Summary

Daily Weather History Graph

Daily Weather History Graph

Search for Another Location

Airport or City:

Trip Planner

Search our weather history database for the weather conditions in past years. The results will help you decide how hot, cold, wet, or windy it might be!

Date:

Astronomy

Oct. 09, 2013 Rise Set
Actual Time 7:21 AM CDT 6:37 PM CDT
Civil Twilight 6:51 AM CDT 7:07 PM CDT
Nautical Twilight 6:17 AM CDT 7:41 PM CDT
Astronomical Twilight 5:43 AM CDT 8:15 PM CDT
Moon 12:28 PM CDT (10/9) 10:02 PM CDT (10/9)
Length of Visible Light 12h 15m
Length of Day
11h 16m
Waxing Crescent, 25% of the Moon is Illuminated
Oct 9
Waxing Crescent
Oct 11
First Quarter
Oct 18
Full
Oct 26
Last Quarter
Nov 3
New

Hourly Weather History & Observations

Time (CDT) Temp. Dew Point Humidity Pressure Visibility Wind Dir Wind Speed Gust Speed Precip Events Conditions
12:14 AM 66.2 °F 46.4 °F 49% 29.92 in 10.0 mi South 15.0 mph - N/A   Clear
12:34 AM 66.2 °F 46.4 °F 49% 29.93 in 10.0 mi South 13.8 mph 19.6 mph N/A   Clear
12:54 AM 66.2 °F 46.4 °F 49% 29.93 in 10.0 mi South 17.3 mph 23.0 mph N/A   Clear
1:14 AM 68.0 °F 46.4 °F 46% 29.94 in 10.0 mi South 17.3 mph 26.5 mph N/A   Clear
1:34 AM 66.2 °F 46.4 °F 49% 29.94 in 10.0 mi South 17.3 mph 29.9 mph N/A   Clear
1:54 AM 66.2 °F 46.4 °F 49% 29.95 in 10.0 mi South 17.3 mph 25.3 mph N/A   Clear
2:14 AM 66.2 °F 46.4 °F 49% 29.95 in 10.0 mi South 13.8 mph 26.5 mph N/A   Clear
2:34 AM 66.2 °F 46.4 °F 49% 29.96 in 10.0 mi South 17.3 mph 28.8 mph N/A   Clear
2:54 AM 66.2 °F 46.4 °F 49% 29.96 in 10.0 mi South 18.4 mph 23.0 mph N/A   Clear
3:14 AM 64.4 °F 46.4 °F 52% 29.96 in 10.0 mi South 16.1 mph 26.5 mph N/A   Clear
3:34 AM 64.4 °F 46.4 °F 52% 29.96 in 10.0 mi South 16.1 mph 25.3 mph N/A   Clear
3:54 AM 64.4 °F 46.4 °F 52% 29.96 in 10.0 mi South 18.4 mph 21.9 mph N/A   Clear
4:14 AM 64.4 °F 46.4 °F 52% 29.96 in 10.0 mi South 16.1 mph 24.2 mph N/A   Clear
4:34 AM 64.4 °F 46.4 °F 52% 29.97 in 10.0 mi South 15.0 mph 26.5 mph N/A   Clear
4:54 AM 64.4 °F 46.4 °F 52% 29.97 in 10.0 mi South 16.1 mph 21.9 mph N/A   Clear
5:13 AM 62.6 °F 46.4 °F 55% 29.98 in 10.0 mi South 11.5 mph 19.6 mph N/A   Clear
5:34 AM 62.6 °F 48.2 °F 59% 29.98 in 10.0 mi South 13.8 mph 26.5 mph N/A   Clear
5:54 AM 62.6 °F 48.2 °F 59% 29.98 in 10.0 mi South 12.7 mph 17.3 mph N/A   Clear
6:14 AM 62.6 °F 48.2 °F 59% 29.98 in 10.0 mi South 12.7 mph - N/A   Clear
6:34 AM 62.6 °F 48.2 °F 59% 29.98 in 10.0 mi South 11.5 mph 17.3 mph N/A   Clear
6:45 AM 60.8 °F 48.2 °F 63% 29.98 in 10.0 mi South 11.5 mph 17.3 mph N/A   Scattered Clouds
6:54 AM 60.8 °F 48.2 °F 63% 29.98 in 10.0 mi South 9.2 mph 17.3 mph N/A   Clear
7:45 AM 60.8 °F 48.2 °F 63% 30.00 in 10.0 mi South 11.5 mph - N/A   Scattered Clouds
8:55 AM 64.4 °F 50.0 °F 59% 30.01 in 10.0 mi South 11.5 mph 17.3 mph N/A   Scattered Clouds
9:50 AM 64.4 °F 50.0 °F 59% 30.03 in 10.0 mi SSW 11.5 mph 17.3 mph N/A   Scattered Clouds
10:45 AM 68.0 °F 51.8 °F 56% 30.03 in 10.0 mi South 12.7 mph 18.4 mph N/A   Scattered Clouds
11:45 AM 69.8 °F 51.8 °F 53% 30.03 in 10.0 mi SSE 16.1 mph - N/A   Scattered Clouds
12:45 PM 71.6 °F 53.6 °F 53% 30.03 in 10.0 mi SE 9.2 mph - N/A   Scattered Clouds
1:45 PM 73.4 °F 51.8 °F 47% 30.01 in 10.0 mi SSE 13.8 mph - N/A   Scattered Clouds
2:45 PM 75.2 °F 51.8 °F 44% 30.01 in 10.0 mi SSE 13.8 mph 18.4 mph N/A   Scattered Clouds
4:45 PM 75.2 °F 50.0 °F 41% 30.01 in 10.0 mi SSE 15.0 mph - N/A   Clear
5:45 PM 73.4 °F 48.2 °F 41% 30.00 in 10.0 mi SSE 10.4 mph - N/A   Clear
7:45 PM 66.2 °F 50.0 °F 56% 30.01 in 10.0 mi SSE 10.4 mph - N/A   Clear
8:45 PM 64.4 °F 50.0 °F 59% 30.01 in 10.0 mi SE 6.9 mph - N/A   Clear
9:14 PM 64.4 °F 50.0 °F 59% 30.02 in 10.0 mi SE 8.1 mph - N/A   Clear
9:33 PM 64.4 °F 50.0 °F 59% 30.02 in 10.0 mi SSE 9.2 mph - N/A   Clear
9:54 PM 64.4 °F 50.0 °F 59% 30.03 in 10.0 mi SSE 9.2 mph - N/A   Clear
10:14 PM 64.4 °F 50.0 °F 59% 30.03 in 10.0 mi SE 8.1 mph - N/A   Clear
10:33 PM 62.6 °F 50.0 °F 63% 30.03 in 10.0 mi SSE 9.2 mph - N/A   Clear
10:54 PM 62.6 °F 50.0 °F 63% 30.04 in 10.0 mi SSE 8.1 mph - N/A   Clear
11:14 PM 60.8 °F 50.0 °F 68% 30.04 in 10.0 mi SSE 5.8 mph - N/A   Clear
11:33 PM 60.8 °F 50.0 °F 68% 30.04 in 10.0 mi SSE 6.9 mph - N/A   Clear
11:54 PM 60.8 °F 48.2 °F 63% 30.04 in 10.0 mi SSE 8.1 mph - N/A   Clear